Vancouver, WA
on Thursday, November 22, 2012

Thursday
Previous Day Next Day
Daily Summary
 ActualAverageRecord
Temperature
Mean Temperature °F 45°F  
Max Temperature 50°F 51°F 62°F (1909)
Min Temperature 34°F 39°F 21°F (2013)
Degree Days
Heating Degree Days 23    
Month to date heating degree days 337  
Since 1 July heating degree days 656  
Cooling Degree Days 0    
Month to date cooling degree days 0  
Year to date cooling degree days 398  
Moisture
Dew Point 36°F   
Average Humidity 81    
Maximum Humidity 100    
Minimum Humidity 61    
Precipitation
Precipitation 0.00 in 0.21 in 2.81 in (1901)
Month to date precipitation 4.92 4.14  
Year to date precipitation 36.08 30.60  
Snow
Snow 0.00 in in in ()
Month to date snowfall 0.0  
Snow Depth 0.00 in   
Wind
Wind Speed 3 mph   
Max Wind Speed 9 mph   
Max Gust Speed 15 mph   
Visibility 9 miles   
Events     

Key: T is trace of precipitation, MM is missing value
Source: NWS Daily Summary
Time(PST)TemperatureDew PointHumidity Pressure Visibility Wind DirectionWind SpeedGust SpeedPrecipitationEvents Conditions
12:53 AM 36.0°F 35.1°F 97% 30.35 in 10.0 miles Calm Calm - N/A   Clear
1:53 AM 37.9°F 36.0°F 93% 30.35 in 10.0 miles Calm Calm - N/A   Clear
2:53 AM 36.0°F 34.0°F 93% 30.37 in 10.0 miles Calm Calm - N/A   Clear
3:53 AM 35.1°F 33.1°F 92% 30.37 in 7.0 miles Calm Calm - N/A   Clear
4:05 AM 33.8°F 33.8°F 100% 30.37 in 7.0 miles Calm Calm - N/A   Partly Cloudy
4:53 AM 35.1°F 34.0°F 96% 30.37 in 7.0 miles Calm Calm - N/A   Clear
5:43 AM 35.6°F 33.8°F 93% 30.37 in 7.0 miles Calm Calm - N/A   Partly Cloudy
5:53 AM 35.1°F 34.0°F 96% 30.37 in 8.0 miles Calm Calm - N/A   Clear
6:02 AM 35.6°F 33.8°F 93% 30.37 in 6.0 miles Calm Calm - N/A   Partly Cloudy
6:21 AM 35.6°F 35.6°F 100% 30.37 in 9.0 miles Calm Calm - N/A   Mostly Cloudy
6:43 AM 35.6°F 33.8°F 93% 30.36 in 6.0 miles Calm Calm - N/A   Scattered Clouds
6:53 AM 37.0°F 35.1°F 93% 30.37 in 8.0 miles Calm Calm - N/A   Partly Cloudy
7:53 AM 37.0°F 35.1°F 93% 30.37 in 7.0 miles Calm Calm - N/A   Clear
8:53 AM 39.9°F 37.9°F 93% 30.37 in 10.0 miles NW 3.5 mph - N/A   Scattered Clouds
9:53 AM 43.0°F 39.9°F 89% 30.35 in 10.0 miles Calm Calm - N/A   Scattered Clouds
10:53 AM 45.0°F 39.9°F 82% 30.35 in 10.0 miles Calm Calm - N/A   Clear
11:53 AM 46.0°F 39.9°F 79% 30.33 in 10.0 miles Calm Calm - N/A   Clear
12:53 PM 48.9°F 39.0°F 69% 30.30 in 10.0 miles ESE 8.1 mph - N/A   Clear
1:53 PM 50.0°F 37.9°F 63% 30.31 in 10.0 miles SE 5.8 mph - N/A   Clear
2:53 PM 48.9°F 37.9°F 66% 30.30 in 10.0 miles ESE 6.9 mph - N/A   Clear
3:53 PM 48.9°F 37.9°F 66% 30.30 in 10.0 miles SE 3.5 mph - N/A   Clear
4:53 PM 48.0°F 37.0°F 66% 30.30 in 10.0 miles SE 3.5 mph - N/A   Clear
5:53 PM 48.0°F 37.9°F 68% 30.29 in 10.0 miles ESE 4.6 mph - N/A   Clear
6:53 PM 46.9°F 37.0°F 68% 30.27 in 10.0 miles SE 5.8 mph - N/A   Clear
7:53 PM 48.0°F 36.0°F 63% 30.27 in 10.0 miles SE 6.9 mph - N/A   Clear
8:53 PM 48.0°F 36.0°F 63% 30.27 in 10.0 miles SE 5.8 mph - N/A   Clear
9:53 PM 46.9°F 36.0°F 66% 30.27 in 10.0 miles SE 6.9 mph - N/A   Clear
10:53 PM 46.9°F 36.0°F 66% 30.27 in 10.0 miles SE 5.8 mph - N/A   Clear
11:53 PM 46.0°F 36.0°F 68% 30.27 in 10.0 miles SE 6.9 mph - N/A   Clear
Moon Phase
Nov. 22 Nov. 28 Dec. 06 Dec. 13 Dec. 20
Sunrise:07:20 AM (PST) Moon Rise:01:34 PM (PST)11/22
Sunset:04:33 PM (PST) Moon Set:01:30 AM (PST)11/22

Copyright © 2014 The Weather Underground, Inc.